Tracking 35331 objects as of 17-Sep-2026
HD Live streaming from Space Station
objects crossing your sky now

DELTA 4 DEB


DELTA 4 DEB is no longer on orbit


NORAD ID: 29578
Int'l Code: 2006-050AU
Launch date: November 4, 2006
Source: United States (US)
Launch site: AIR FORCE WESTERN TEST RANGE (AFWTR)
Decay date: 2011-03-14

Note: This is SATELLITE DEBRIS
Your satellite tracking list
Your tracking list is empty




NASA's NSSDC Master Catalog

Two Line Element Set (TLE):
1 29578U 06050AU  11073.24768392  .50877525  00000-0  16316+0 0  9990
2 29578 099.2902 181.2879 0021311 284.8219 078.0274 15.82606374229465
Source of the keplerian elements: AFSPC